STARLINK-11698, 64325

Orbit data source: Space-Track

STARLINK-11698, 64325 is a payload satellite owned by SpaceX/Seattle (US) in LEO that was launched on Tue, 10 Jun 2025 UTC via an FALCON 9 launch vehicle from the Air Force Eastern Test Range (AFETR). Payload-class satellites include a variety of spacecraft equipped with specific instruments for various scientific and technological missions. These include communications satellites like Starlink; space stations such as the ISS; scientific satellites like the Hubble; Earth observation satellites from companies like Planet Labs, Umbra, and HawkEye 360; GPS; miniature CubeSats for education and research; and military/defense satellites.

Loading next visibility...
Identifier
64325, 2025-124J
Orbit
LEO
Country
Flag of USUS
Related business
Manufacturer
SpaceX/Seattle
Mission
Operational Commercial Communications
Bus & Motor
STARLINK V2MD, Unknown motor
Mass
960 kg wet, ~910 kg dry
Launch date (UTC)
2025-06-10 (11 months ago)
Launch vehicle
FALCON 9
Launch site
Air Force Eastern Test Range (AFETR)
Object type
Payload
Rocket body
Debris
Shape & HBR
Box + 2 Pan, 18.1 m
Radar Cross Section
36.964 m², Large (>1 m²)

Expand to show TLE details & history
Last TLE update: 15 hours ago

TLE from 15 hours ago
0 STARLINK-11698
1 64325U 25124J   26131.05002522  .00153954  00000-0  11733-2 0  9997
2 64325  42.9996  13.1826 0001850 271.2463  88.8193 15.70998890 52641
Epoch: 2026-05-11T01:12Z
TLE epoch observation values (Epoch: 2026-05-11T01:12:02.179Z)
Latitude
0.00002°
Longitude
126.32922°
Altitude
355.787 km
Speed
7.698 km/s
True Right ascension
00h 52m 43s
True Declination
0° 00' 00"
Sunlit
Object was in daylight at epoch
Visualization orbit readout
Latitude
Unknown
Longitude
Unknown
Altitude
Unknown
Speed
Unknown
Apparent Right ascension
Unknown
Apparent Declination
Unknown
Sunlit
N/A
Visualization observer readout
Local Sidereal Time
00:51:28
Azimuth
Unknown
Elevation
Unknown
Doppler factor
Unknown
Orbital elements
Apogee altitude
359.269 km
Perigee altitude
356.777 km
Semi-major axis
6,736.16 km
Eccentricity
0.00019
Inclination
42.9996°
RAAN
13.1826°
Arg. of periapsis
271.2463°
True anomaly
88.8405°
Mean anomaly
88.8193°
Eccentric anomaly
88.8299°
Mean motion
3.92577 °/min
Orbital period
91.7 mins
BSTAR
0.0011733
Loading maneuver chart data...
Computing Atmospheric mass density...
Loading historical data...
Loading historical data...
Loading historical data...
Loading historical data...
Loading historical data...
Loading historical data...
Loading historical data...

Documentation

Showing up to 5 results
|